Location: ??????
(55.6130°N, 37.7882°E)
Time: 10:43:23
(UTC+00:00)

Cosmos 1743 - Pass Details

Date: 14 April 2024
Orbit: 476 x 491 km, 82.5° (Epoch: 18 May)

Event Time Altitude Azimuth Distance (km) Brightness Sun altitude
Rises 00:11:35 0° 340° (NNW) 2,600 6.6 -16.6°
Reaches altitude 10° 00:13:57 10° 327° (NNW) 1,708 5.5 -16.4°
Maximum altitude 00:17:03 25° 271° (W) 1,031 3.8 -16.1°
Enters shadow 00:17:10 25° 268° (W) 1,031 3.8 -16.1°
